Back to catalog

STARLINK-30934

AliveCommunicationsVLEO
NORAD 58395·PAYLOAD·🇺🇸 United States

Launched Nov 20, 2023 from Vandenberg Space Force Base

Loading…

Next Passes (next 24 hours)

TLE

FreshSource: CelesTrak SupGP

Epoch: Sep 14, 2026, 21:17 UTC

1 58395C 23178X   26257.88729167  .00140640  00000+0  41548-2 0  2576
2 58395  53.1578 198.3109 0001557 102.9963 317.4510 15.34323574    19

Track STARLINK-30934 in real time with AllMySat

Download on the App Store